User: anonymous   Login
Location: Peebles
(55.6412°N, 3.1714°W)
Time: 07:16:13
(UTC+00:00)
Language:

Cosmos 1184 Rocket - Orbit

View from above orbital plane
View from above orbital plane
View from above satellite
View from above satellite

Ground track
Ground track

The orbit data is extracted from the following two-line orbital elements,

1 11822U 80044B   21336.88076348  .00009105  00000-0  13270-3 0  9990
2 11822  81.2296  42.5516 0008367 340.0959  19.9963 15.55493558285575
Epoch (UTC): 02 December 2021 21:08:17
Eccentricity: 0.0008367
inclination: 81.2296°
perigee height: 395 km
apogee height: 406 km
right ascension of ascending node: 42.5516°
argument of perigee: 340.0959°
revolutions per day: 15.55493558
mean anomaly at epoch: 19.9963°
orbit number at epoch: 28557

The dashed part of the orbit path shows where the satellite is in the earth's shadow,  

DLR